DW6536 Weather Reports


Display with metric or nautical units.
time (UTC)temp
F
wind
direction
speed
MPH
gust
MPH
rain 1hr
in
rain 24hr
in
rain mn
in
humidity
%
barometer
mb
20260507064603 59 25 1.0 0.0 0.00 0.00 0.00 81 1013.4
20260507063106 60 30 1.0 0.0 0.00 0.00 0.00 80 1013.2
20260507061558 60 36 2.0 0.0 0.00 0.00 0.00 80 1013.3
20260507060057 60 44 1.0 0.0 0.00 0.00 0.00 80 1013.7
20260507054554 60 62 2.0 0.0 0.00 0.00 0.00 80 1013.4
20260507053054 60 58 2.0 0.0 0.00 0.00 0.00 81 1013.1
20260507051554 60 26 2.0 0.0 0.00 0.00 0.00 80 1013.2
20260507050051 60 53 2.0 0.0 0.00 0.00 0.00 80 1013.4
20260507044550 61 31 2.0 0.0 0.00 0.00 0.00 80 1013.1
20260507043049 61 343 2.0 0.0 0.00 0.00 0.00 80 1013.3
20260507041551 61 37 2.0 0.0 0.00 0.00 0.00 80 1013.2
20260507040053 61 32 2.0 0.0 0.00 0.00 0.00 81 1013.4
20260507034551 61 22 1.0 0.0 0.00 0.00 0.00 82 1013.3
20260507033050 61 26 2.0 0.0 0.00 0.00 0.00 82 1013.1
20260507031545 60 37 1.0 0.0 0.00 0.00 0.00 82 1013.1
20260507030044 61 321 1.0 0.0 0.00 0.00 0.00 82 1012.6
20260507024543 61 37 2.0 0.0 0.00 0.00 0.00 81 1012.9
20260507023048 61 37 1.0 0.0 0.00 0.00 0.00 81 1012.6
20260507021545 61 27 2.0 0.0 0.00 0.00 0.00 81 1012.1
20260507020058 61 20 1.0 0.0 0.00 0.00 0.00 81 1012.3
20260507014536 61 347 2.0 0.0 0.00 0.00 0.00 81 1011.8
20260507013047 61 6 1.0 0.0 0.00 0.00 0.00 81 1011.6
20260507011534 61 47 2.0 0.0 0.00 0.00 0.00 80 1011.0
20260507010036 61 16 2.0 0.0 0.00 0.00 0.00 80 1011.1
20260507004536 62 22 2.0 0.0 0.00 0.00 0.00 80 1010.8
20260507003041 62 17 2.0 0.0 0.00 0.00 0.00 80 1010.7
20260507001537 61 353 2.0 0.0 0.00 0.00 0.00 80 1010.7
20260507000035 62 338 1.0 0.0 0.00 0.00 0.00 80 1010.7
20260506234536 62 4 1.0 0.0 0.00 0.00 0.00 80 1010.8
20260506233031 62 58 2.0 0.0 0.00 0.00 0.00 80 1010.2
20260506231530 62 314 2.0 0.0 0.00 0.00 0.00 80 1010.3
20260506230029 62 48 2.0 0.0 0.00 0.00 0.00 79 1010.2
20260506224533 61 4 2.0 0.0 0.00 0.00 0.00 81 1010.4
20260506223040 61 30 2.0 0.0 0.00 0.00 0.00 80 1010.3
20260506221528 61 338 3.0 0.0 0.00 0.00 0.00 80 1010.1
20260506220028 61 7 3.0 0.0 0.00 0.00 0.00 79 1010.3
20260506214537 62 303 3.0 0.0 0.00 0.00 0.00 79 1009.9
20260506213026 62 8 3.0 0.0 0.00 0.00 0.00 78 1009.9
20260506211526 62 53 3.0 0.0 0.00 0.00 0.00 78 1010.2
20260506210027 63 351 3.0 0.0 0.00 0.00 0.00 78 1010.3
20260506204526 63 77 3.0 0.0 0.00 0.00 0.00 77 1010.4
20260506203024 63 355 3.0 0.0 0.00 0.00 0.00 77 1010.4
20260506201524 65 6 3.0 0.0 0.00 0.00 0.00 76 1010.2
20260506200023 65 351 3.0 0.0 0.00 0.00 0.00 75 1010.1
20260506194522 66 289 3.0 0.0 0.00 0.00 0.00 76 1010.0
20260506193021 67 46 3.0 0.0 0.00 0.00 0.00 76 1009.9
20260506191521 68 42 3.0 0.0 0.00 0.00 0.00 77 1010.0
20260506190020 71 279 3.0 0.0 0.00 0.00 0.00 74 1010.0
20260506184537 72 11 2.0 0.0 0.00 0.00 0.00 75 1009.6
20260506183029 73 20 1.0 0.0 0.00 0.00 0.00 74 1009.5
20260506181525 72 133 2.0 0.0 0.00 0.00 0.00 77 1009.6
20260506180017 70 358 2.0 0.0 0.00 0.00 0.00 77 1009.4
20260506174523 70 56 2.0 0.0 0.00 0.00 0.00 78 1009.2
20260506173016 68 58 2.0 0.0 0.00 0.00 0.00 79 1009.1
20260506171518 66 96 2.0 0.0 0.00 0.00 0.00 82 1009.4
20260506170015 66 60 2.0 0.0 0.00 0.00 0.00 82 1009.5
20260506164514 63 80 2.0 0.0 0.00 0.00 0.00 86 1009.5
20260506163014 62 22 2.0 0.0 0.00 0.00 0.00 86 1010.5
20260506161516 61 67 3.0 0.0 0.00 0.00 0.00 88 1010.3
20260506160014 62 41 3.0 0.0 0.00 0.00 0.00 87 1011.4
20260506154507 63 66 3.0 0.0 0.00 0.00 0.00 87 1011.0
20260506153003 65 267 4.0 0.0 0.00 0.00 0.00 85 1010.5
20260506151600 66 347 3.0 0.0 0.00 0.00 0.00 84 1010.0
20260506150100 69 311 2.0 0.0 0.00 0.00 0.00 82 1009.6
20260506144556 74 1 2.0 0.0 0.00 0.00 0.00 78 1008.4
20260506143047 77 101 1.0 0.0 0.00 0.00 0.00 84 1007.9
20260506141548 76 136 0.0 0.0 0.00 0.00 0.00 88 1007.4
20260506140044 75 60 0.0 0.0 0.00 0.00 0.00 90 1007.6
20260506134541 74 185 1.0 0.0 0.00 0.00 0.00 91 1007.2
20260506133042 74 135 1.0 0.0 0.00 0.00 0.00 91 1007.3
20260506131546 73 122 0.0 0.0 0.00 0.00 0.00 92 1007.1
20260506130038 73 146 1.0 0.0 0.00 0.00 0.00 92 1006.9
20260506124538 73 147 1.0 0.0 0.00 0.00 0.00 92 1006.7
20260506123036 73 133 0.0 0.0 0.00 0.00 0.00 92 1006.6
20260506121535 73 126 0.0 0.0 0.00 0.00 0.00 92 1006.6
20260506120039 73 126 0.0 0.0 0.00 0.00 0.00 92 1006.7
20260506114533 73 195 0.0 0.0 0.00 0.00 0.00 91 1006.5
20260506113039 73 195 0.0 0.0 0.00 0.00 0.00 91 1006.6
20260506111532 73 195 0.0 0.0 0.00 0.00 0.00 91 1006.7
20260506110031 73 195 0.0 0.0 0.00 0.00 0.00 91 1006.6
20260506104533 73 195 0.0 0.0 0.00 0.00 0.00 91 1006.5
20260506103027 73 195 0.0 0.0 0.00 0.00 0.00 90 1006.4
20260506101527 74 152 0.0 0.0 0.00 0.00 0.00 90 1006.3
20260506100025 74 237 0.0 0.0 0.00 0.00 0.00 89 1006.1
20260506094524 74 93 0.0 0.0 0.00 0.00 0.00 89 1006.0
20260506093022 74 165 1.0 0.0 0.00 0.00 0.00 88 1005.8
20260506091520 74 80 0.0 0.0 0.00 0.00 0.00 87 1005.7
20260506090023 74 133 1.0 0.0 0.00 0.00 0.00 87 1005.4
20260506084520 74 115 1.0 0.0 0.00 0.00 0.00 87 1005.5
20260506083017 74 258 1.0 0.0 0.00 0.00 0.00 87 1005.4
20260506081519 74 106 2.0 0.0 0.00 0.00 0.00 86 1005.3
20260506073013 75 145 2.0 0.0 0.00 0.00 0.00 86 1005.7
20260506071513 75 147 2.0 0.0 0.00 0.00 0.00 86 1005.9